This is the latest recevied weather packets stored in our database for station/object SA6BET-2. If no packets are shown the sender has not sent any weather packets the latest 10 day(s).
| Time | Temp. | Humidity | Pressure | Rain* | Wind** | Luminosity | Snow |
|---|---|---|---|---|---|---|---|
| 1777838665 | 20° C | 100% | 1016.6 hPa | - | - | - | - |
| 1777837763 | 20° C | 100% | 1016.5 hPa | - | - | - | - |
| 1777837638 | 20° C | 100% | 1016.1 hPa | - | - | - | - |
| 1777836863 | 20° C | 100% | 1016.1 hPa | - | - | - | - |
| 1777835963 | 20° C | 100% | 1015.9 hPa | - | - | - | - |
| 1777835063 | 20° C | 100% | 1015.7 hPa | - | - | - | - |
| 1777834163 | 20.56° C | 100% | 1015.4 hPa | - | - | - | - |
| 1777833262 | 20.56° C | 100% | 1015.4 hPa | - | - | - | - |
| 1777832362 | 21.11° C | 100% | 1015.4 hPa | - | - | - | - |
| 1777831462 | 21.67° C | 100% | 1015.3 hPa | - | - | - | - |
| 1777830562 | 22.22° C | 100% | 1015.2 hPa | - | - | - | - |
| 1777829662 | 22.22° C | 100% | 1015.1 hPa | - | - | - | - |
| 1777828762 | 22.78° C | 100% | 1014.8 hPa | - | - | - | - |
| 1777827861 | 23.89° C | 100% | 1014.8 hPa | - | - | - | - |
| 1777826961 | 22.78° C | 100% | 1014.7 hPa | - | - | - | - |
| 1777826061 | 24.44° C | 100% | 1014.8 hPa | - | - | - | - |
| 1777825161 | 23.89° C | 100% | 1014.7 hPa | - | - | - | - |
| 1777824261 | 26.11° C | 100% | 1014.9 hPa | - | - | - | - |
| 1777823361 | 25.56° C | 100% | 1015.1 hPa | - | - | - | - |
| 1777822460 | 27.78° C | 97% | 1015.1 hPa | - | - | - | - |
| 1777821560 | 27.78° C | 91% | 1015.2 hPa | - | - | - | - |
| 1777820660 | 27.78° C | 93% | 1015.3 hPa | - | - | - | - |
| 1777819760 | 28.33° C | 82% | 1015.3 hPa | - | - | - | - |
| 1777818860 | 28.89° C | 78% | 1015.5 hPa | - | - | - | - |
| 1777817960 | 29.44° C | 78% | 1015.7 hPa | - | - | - | - |
* Rain since midnight (hover to see other rain measurements)
** Current wind speed in m/s (hover to see current wind gust speed)